Time,TemperatureF,DewpointF,PressureIn,WindDirection,WindDirectionDegrees,WindSpeedMPH,WindSpeedGustMPH,Humidity,HourlyPrecipIn,Conditions,Clouds,dailyrainin,SoftwareType,DateUTC
2013-01-21 00:02:00,68.0,5.0,-100.00,North,-999,-999.0,-999.0,8,-99.99,,,-99.99,,2013-01-21 00:02:00,
2013-01-21 00:13:00,68.0,5.0,-100.00,North,-999,-999.0,-999.0,8,-99.99,,,-99.99,,2013-01-21 00:13:00,
2013-01-21 00:22:00,65.0,5.0,-100.00,North,-999,-999.0,-999.0,9,-99.99,,,-99.99,,2013-01-21 00:22:00,
2013-01-21 00:32:00,65.0,5.0,-100.00,North,-999,-999.0,-999.0,9,-99.99,,,-99.99,,2013-01-21 00:32:00,
2013-01-21 00:43:00,65.0,5.0,-100.00,North,-999,-999.0,-999.0,9,-99.99,,,-99.99,,2013-01-21 00:43:00,
2013-01-21 00:53:00,65.0,5.0,-100.00,North,-999,-999.0,-999.0,9,-99.99,,,-99.99,,2013-01-21 00:53:00,
2013-01-21 01:03:00,63.0,-99.9,-100.00,North,-999,-999.0,-999.0,-999,-99.99,,,-99.99,,2013-01-21 01:03:00,
2013-01-21 01:13:00,63.0,-99.9,-100.00,North,-999,-999.0,-999.0,-999,-99.99,,,-99.99,,2013-01-21 01:13:00,
2013-01-21 01:23:00,63.0,-99.9,-100.00,North,-999,-999.0,-999.0,-999,-99.99,,,-99.99,,2013-01-21 01:23:00,
2013-01-21 01:32:00,56.0,4.0,-100.00,North,-999,-999.0,-999.0,12,-99.99,,,-99.99,,2013-01-21 01:32:00,
2013-01-21 01:43:00,56.0,4.0,-100.00,North,-999,-999.0,-999.0,12,-99.99,,,-99.99,,2013-01-21 01:43:00,
2013-01-21 01:53:00,52.0,4.0,-100.00,North,-999,-999.0,-999.0,14,-99.99,,,-99.99,,2013-01-21 01:53:00,
2013-01-21 02:02:00,52.0,4.0,-100.00,North,-999,-999.0,-999.0,14,-99.99,,,-99.99,,2013-01-21 02:02:00,
2013-01-21 02:12:00,52.0,4.0,-100.00,North,-999,-999.0,-999.0,14,-99.99,,,-99.99,,2013-01-21 02:12:00,
2013-01-21 02:22:00,40.0,12.0,-100.00,North,-999,-999.0,-999.0,31,-99.99,,,-99.99,,2013-01-21 02:22:00,
2013-01-21 02:32:00,40.0,12.0,-100.00,North,-999,-999.0,-999.0,31,-99.99,,,-99.99,,2013-01-21 02:32:00,
2013-01-21 03:02:00,38.0,9.0,-100.00,North,-999,-999.0,-999.0,30,-99.99,,,-99.99,,2013-01-21 03:02:00,
2013-01-21 03:12:00,38.0,9.0,-100.00,North,-999,-999.0,-999.0,30,-99.99,,,-99.99,,2013-01-21 03:12:00,
2013-01-21 03:23:00,35.0,10.0,-100.00,North,-999,-999.0,-999.0,35,-99.99,,,-99.99,,2013-01-21 03:23:00,
2013-01-21 04:02:00,33.0,11.0,-100.00,North,-999,-999.0,-999.0,39,-99.99,,,-99.99,,2013-01-21 04:02:00,
2013-01-21 04:53:00,28.0,9.0,-100.00,North,-999,-999.0,-999.0,45,-99.99,,,-99.99,,2013-01-21 04:53:00,
2013-01-21 05:03:00,28.0,9.0,-100.00,North,-999,-999.0,-999.0,45,-99.99,,,-99.99,,2013-01-21 05:03:00,
2013-01-21 07:03:00,24.0,-99.9,-100.00,North,-999,-999.0,-999.0,-999,-99.99,,,-99.99,,2013-01-21 07:03:00,
2013-01-21 07:32:00,23.0,10.0,-100.00,North,-999,-999.0,-999.0,58,-99.99,,,-99.99,,2013-01-21 07:32:00,
2013-01-21 08:23:00,23.0,11.0,-100.00,North,-999,-999.0,-999.0,59,-99.99,,,-99.99,,2013-01-21 08:23:00,
2013-01-21 08:33:00,23.0,11.0,-100.00,North,-999,-999.0,-999.0,59,-99.99,,,-99.99,,2013-01-21 08:33:00,
2013-01-21 08:53:00,21.0,11.0,-100.00,North,-999,-999.0,-999.0,66,-99.99,,,-99.99,,2013-01-21 08:53:00,
2013-01-21 09:02:00,21.0,11.0,-100.00,North,-999,-999.0,-999.0,66,-99.99,,,-99.99,,2013-01-21 09:02:00,
2013-01-21 09:32:00,21.0,12.0,-100.00,North,-999,-999.0,-999.0,68,-99.99,,,-99.99,,2013-01-21 09:32:00,
2013-01-21 09:43:00,21.0,12.0,-100.00,North,-999,-999.0,-999.0,68,-99.99,,,-99.99,,2013-01-21 09:43:00,
2013-01-21 09:53:00,20.0,12.0,-100.00,North,-999,-999.0,-999.0,70,-99.99,,,-99.99,,2013-01-21 09:53:00,
2013-01-21 10:02:00,20.0,12.0,-100.00,North,-999,-999.0,-999.0,70,-99.99,,,-99.99,,2013-01-21 10:02:00,
2013-01-21 10:22:00,20.0,11.0,-100.00,North,-999,-999.0,-999.0,68,-99.99,,,-99.99,,2013-01-21 10:22:00,
2013-01-21 10:32:00,20.0,11.0,-100.00,North,-999,-999.0,-999.0,68,-99.99,,,-99.99,,2013-01-21 10:32:00,
2013-01-21 10:52:00,19.0,12.0,-100.00,North,-999,-999.0,-999.0,73,-99.99,,,-99.99,,2013-01-21 10:52:00,
2013-01-21 11:02:00,19.0,12.0,-100.00,North,-999,-999.0,-999.0,73,-99.99,,,-99.99,,2013-01-21 11:02:00,
2013-01-21 11:32:00,19.0,12.0,-100.00,North,-999,-999.0,-999.0,73,-99.99,,,-99.99,,2013-01-21 11:32:00,
2013-01-21 12:02:00,19.0,12.0,-100.00,North,-999,-999.0,-999.0,74,-99.99,,,-99.99,,2013-01-21 12:02:00,
2013-01-21 12:32:00,19.0,12.0,-100.00,North,-999,-999.0,-999.0,75,-99.99,,,-99.99,,2013-01-21 12:32:00,
2013-01-21 13:02:00,19.0,12.0,-100.00,North,-999,-999.0,-999.0,75,-99.99,,,-99.99,,2013-01-21 13:02:00,
2013-01-21 13:23:00,19.0,13.0,-100.00,North,-999,-999.0,-999.0,76,-99.99,,,-99.99,,2013-01-21 13:23:00,
2013-01-21 14:02:00,20.0,14.0,-100.00,North,-999,-999.0,-999.0,76,-99.99,,,-99.99,,2013-01-21 14:02:00,
2013-01-21 14:32:00,19.0,13.0,-100.00,North,-999,-999.0,-999.0,76,-99.99,,,-99.99,,2013-01-21 14:32:00,
2013-01-21 14:53:00,19.0,12.0,-100.00,North,-999,-999.0,-999.0,74,-99.99,,,-99.99,,2013-01-21 14:53:00,
2013-01-21 15:03:00,19.0,12.0,-100.00,North,-999,-999.0,-999.0,74,-99.99,,,-99.99,,2013-01-21 15:03:00,
2013-01-21 15:32:00,18.0,12.0,-100.00,North,-999,-999.0,-999.0,77,-99.99,,,-99.99,,2013-01-21 15:32:00,
2013-01-21 15:53:00,19.0,14.0,-100.00,North,-999,-999.0,-999.0,79,-99.99,,,-99.99,,2013-01-21 15:53:00,
2013-01-21 16:03:00,19.0,14.0,-100.00,North,-999,-999.0,-999.0,79,-99.99,,,-99.99,,2013-01-21 16:03:00,
2013-01-21 16:23:00,27.0,16.0,-100.00,North,-999,-999.0,-999.0,64,-99.99,,,-99.99,,2013-01-21 16:23:00,
2013-01-21 16:32:00,27.0,16.0,-100.00,North,-999,-999.0,-999.0,64,-99.99,,,-99.99,,2013-01-21 16:32:00,
2013-01-21 16:53:00,39.0,18.0,-100.00,North,-999,-999.0,-999.0,42,-99.99,,,-99.99,,2013-01-21 16:53:00,
2013-01-21 17:02:00,39.0,18.0,-100.00,North,-999,-999.0,-999.0,42,-99.99,,,-99.99,,2013-01-21 17:02:00,
2013-01-21 17:12:00,39.0,18.0,-100.00,North,-999,-999.0,-999.0,42,-99.99,,,-99.99,,2013-01-21 17:12:00,
2013-01-21 17:22:00,39.0,18.0,-100.00,North,-999,-999.0,-999.0,42,-99.99,,,-99.99,,2013-01-21 17:22:00,
2013-01-21 17:33:00,51.0,20.0,-100.00,North,-999,-999.0,-999.0,29,-99.99,,,-99.99,,2013-01-21 17:33:00,
2013-01-21 17:43:00,51.0,20.0,-100.00,North,-999,-999.0,-999.0,29,-99.99,,,-99.99,,2013-01-21 17:43:00,
2013-01-21 17:53:00,65.0,7.0,-100.00,North,-999,-999.0,-999.0,10,-99.99,,,-99.99,,2013-01-21 17:53:00,
2013-01-21 18:02:00,65.0,7.0,-100.00,North,-999,-999.0,-999.0,10,-99.99,,,-99.99,,2013-01-21 18:02:00,
2013-01-21 18:12:00,65.0,7.0,-100.00,North,-999,-999.0,-999.0,10,-99.99,,,-99.99,,2013-01-21 18:12:00,
2013-01-21 18:22:00,65.0,7.0,-100.00,North,-999,-999.0,-999.0,10,-99.99,,,-99.99,,2013-01-21 18:22:00,
2013-01-21 18:33:00,66.0,6.0,-100.00,North,-999,-999.0,-999.0,9,-99.99,,,-99.99,,2013-01-21 18:33:00,
2013-01-21 18:43:00,66.0,6.0,-100.00,North,-999,-999.0,-999.0,9,-99.99,,,-99.99,,2013-01-21 18:43:00,
2013-01-21 18:53:00,66.0,6.0,-100.00,North,-999,-999.0,-999.0,9,-99.99,,,-99.99,,2013-01-21 18:53:00,
2013-01-21 19:02:00,67.0,4.0,-100.00,North,-999,-999.0,-999.0,8,-99.99,,,-99.99,,2013-01-21 19:02:00,
2013-01-21 19:12:00,67.0,4.0,-100.00,North,-999,-999.0,-999.0,8,-99.99,,,-99.99,,2013-01-21 19:12:00,
2013-01-21 19:22:00,69.0,8.0,-100.00,North,-999,-999.0,-999.0,9,-99.99,,,-99.99,,2013-01-21 19:22:00,
2013-01-21 19:32:00,69.0,8.0,-100.00,North,-999,-999.0,-999.0,9,-99.99,,,-99.99,,2013-01-21 19:32:00,
2013-01-21 19:43:00,69.0,8.0,-100.00,North,-999,-999.0,-999.0,9,-99.99,,,-99.99,,2013-01-21 19:43:00,
2013-01-21 19:53:00,69.0,8.0,-100.00,North,-999,-999.0,-999.0,9,-99.99,,,-99.99,,2013-01-21 19:53:00,
2013-01-21 20:02:00,69.0,8.0,-100.00,North,-999,-999.0,-999.0,9,-99.99,,,-99.99,,2013-01-21 20:02:00,
2013-01-21 23:33:00,70.0,3.0,-100.00,North,-999,-999.0,-999.0,7,-99.99,,,-99.99,,2013-01-21 23:33:00,
2013-01-21 23:43:00,70.0,3.0,-100.00,North,-999,-999.0,-999.0,7,-99.99,,,-99.99,,2013-01-21 23:43:00,
2013-01-21 23:53:00,70.0,3.0,-100.00,North,-999,-999.0,-999.0,7,-99.99,,,-99.99,,2013-01-21 23:53:00,